This is the latest recevied weather packets stored in our database for station/object KJ5FA-10. If no packets are shown the sender has not sent any weather packets the latest 10 day(s).
| Time | Temp. | Humidity | Pressure | Rain* | Wind** | Luminosity | Snow |
|---|---|---|---|---|---|---|---|
| 1777572572 | 18.33° C | 52% | 1017.4 hPa | 0 mm | - | - | - |
| 1777569872 | 18.33° C | 50% | 1018.6 hPa | 0 mm | - | - | - |
| 1777568072 | 18.89° C | 52% | 1019 hPa | 0 mm | - | - | - |
| 1777567172 | 17.78° C | 53% | 1019 hPa | 0 mm | - | - | - |
| 1777566272 | 17.78° C | 52% | 1018.5 hPa | 0 mm | - | - | - |
| 1777565372 | 17.22° C | 54% | 1018.5 hPa | 0 mm | - | - | - |
| 1777564472 | 17.22° C | 54% | 1018.8 hPa | 0 mm | - | - | - |
| 1777563572 | 16.67° C | 55% | 1018.7 hPa | 0 mm | - | - | - |
| 1777562673 | 16.11° C | 56% | 1018.9 hPa | 0 mm | - | - | - |
| 1777561772 | 16.11° C | 56% | 1018.8 hPa | 0 mm | - | - | - |
| 1777560872 | 15.56° C | 56% | 1018.9 hPa | 0 mm | - | - | - |
| 1777559973 | 15.56° C | 58% | 1018.9 hPa | 0 mm | - | - | - |
| 1777559072 | 15° C | 60% | 1019.1 hPa | 0 mm | - | - | - |
| 1777558172 | 15° C | 59% | 1019.2 hPa | 0 mm | - | - | - |
| 1777557272 | 14.44° C | 60% | 1018.7 hPa | 0 mm | - | - | - |
| 1777556372 | 13.89° C | 63% | 1018.9 hPa | 0 mm | - | - | - |
| 1777555472 | 13.89° C | 65% | 1018.5 hPa | 0 mm | - | - | - |
| 1777554572 | 13.33° C | 68% | 1018.5 hPa | 0 mm | - | - | - |
| 1777553672 | 13.33° C | 69% | 1018.6 hPa | 0 mm | - | - | - |
| 1777551873 | 12.78° C | 70% | 1018.8 hPa | 0 mm | - | - | - |
| 1777550972 | 12.78° C | 69% | 1018.5 hPa | 0 mm | - | - | - |
| 1777548272 | 12.78° C | 71% | 1018.2 hPa | 0 mm | - | - | - |
| 1777547372 | 13.33° C | 71% | 1018.4 hPa | 0 mm | - | - | - |
| 1777546472 | 13.33° C | 70% | 1018 hPa | 0 mm | - | - | - |
| 1777545572 | 13.33° C | 69% | 1018.1 hPa | 0 mm | - | - | - |
* Rain latest hour (hover to see other rain measurements)
** Current wind speed in m/s (hover to see current wind gust speed)